GW5162 Weather Reports


time (UTC)temp
F
wind
direction
speed
knots
gust
knots
rain 1hr
in
rain 24hr
in
rain mn
in
humidity
%
barometer
mb
20260422052947 59 74 0.0 0.0 0.00 0.00 0.00 38 1010.3
20260422052443 59 137 0.0 0.9 0.00 0.00 0.00 40 1010.5
20260422051940 58 138 0.0 0.9 0.00 0.00 0.00 42 1010.3
20260422051436 59 178 0.0 0.0 0.00 0.00 0.00 44 1010.3
20260422050932 60 318 0.0 0.9 0.00 0.00 0.00 38 1010.1
20260422050430 61 58 0.0 0.0 0.00 0.00 0.00 35 1010.3
20260422045926 61 98 0.0 0.0 0.00 0.00 0.00 34 1010.4
20260422045422 61 106 0.0 0.0 0.00 0.00 0.00 32 1010.3
20260422044919 61 128 0.0 0.0 0.00 0.00 0.00 33 1010.3
20260422044416 62 219 0.0 0.0 0.00 0.00 0.00 31 1010.3
20260422043911 62 90 0.0 0.0 0.00 0.00 0.00 30 1010.2
20260422043408 62 65 0.0 0.0 0.00 0.00 0.00 30 1010.3
20260422042903 63 91 0.0 0.0 0.00 0.00 0.00 30 1010.5
20260422042400 63 132 0.9 0.9 0.00 0.00 0.00 30 1010.7
20260422041858 64 163 2.6 2.6 0.00 0.00 0.00 31 1010.9
20260422041356 63 42 0.0 0.9 0.00 0.00 0.00 29 1010.7
20260422040852 63 15 0.9 0.9 0.00 0.00 0.00 34 1010.9
20260422040350 64 253 0.0 0.9 0.00 0.00 0.00 30 1010.8
20260422035847 64 63 0.0 0.0 0.00 0.00 0.00 29 1010.7
20260422035344 64 36 0.0 0.0 0.00 0.00 0.00 28 1010.7
20260422034843 64 8 0.9 1.7 0.00 0.00 0.00 31 1010.9
20260422034341 65 193 0.0 0.9 0.00 0.00 0.00 27 1010.9
20260422033837 66 91 0.0 0.0 0.00 0.00 0.00 25 1011.2
20260422033334 66 11 0.0 0.0 0.00 0.00 0.00 26 1011.1
20260422032831 66 11 0.0 0.0 0.00 0.00 0.00 26 1011.0
20260422032327 66 124 0.0 0.0 0.00 0.00 0.00 25 1010.9
20260422031824 67 124 0.0 0.0 0.00 0.00 0.00 25 1010.9
20260422031320 69 223 0.0 0.9 0.00 0.00 0.00 25 1010.8
20260422030817 70 28 0.9 0.9 0.00 0.00 0.00 20 1010.7
20260422030314 70 24 0.0 0.0 0.00 0.00 0.00 20 1010.4
20260422025809 70 2 0.0 0.0 0.00 0.00 0.00 20 1010.4
20260422025307 69 31 0.9 0.9 0.00 0.00 0.00 21 1010.7
20260422024802 68 17 0.0 0.0 0.00 0.00 0.00 21 1010.4
20260422024259 66 13 0.0 0.9 0.00 0.00 0.00 27 1010.5
20260422023756 69 316 0.9 0.9 0.00 0.00 0.00 28 1010.5
20260422023253 73 292 1.7 1.7 0.00 0.00 0.00 24 1010.7
20260422022750 73 31 0.9 0.9 0.00 0.00 0.00 19 1010.4
20260422022246 74 359 0.9 0.9 0.00 0.00 0.00 18 1010.4
20260422021743 73 11 2.6 2.6 0.00 0.00 0.00 18 1010.4
20260422021239 72 21 0.9 0.9 0.00 0.00 0.00 21 1010.7
20260422020735 72 343 0.0 0.0 0.00 0.00 0.00 23 1010.8
20260422020231 72 19 0.0 0.9 0.00 0.00 0.00 23 1010.5
20260422015729 72 351 0.9 0.9 0.00 0.00 0.00 24 1010.5
20260422015224 72 357 0.0 0.9 0.00 0.00 0.00 22 1010.8
20260422014722 73 274 0.0 0.0 0.00 0.00 0.00 22 1010.5
20260422014218 73 133 0.0 0.0 0.00 0.00 0.00 20 1010.5
20260422013715 75 318 0.0 0.0 0.00 0.00 0.00 20 1010.5
20260422013211 75 289 0.0 0.0 0.00 0.00 0.00 18 1010.7
20260422012708 76 339 0.0 0.0 0.00 0.00 0.00 18 1011.0
20260422012203 76 352 0.0 0.0 0.00 0.00 0.00 18 1011.0
20260422011659 77 27 0.0 0.9 0.00 0.00 0.00 17 1010.9
20260422011155 77 31 0.0 0.0 0.00 0.00 0.00 16 1011.0
20260422010653 78 310 0.0 0.0 0.00 0.00 0.00 16 1011.1
20260422010150 78 60 0.0 0.0 0.00 0.00 0.00 16 1010.8
20260422005646 79 347 0.9 0.9 0.00 0.00 0.00 15 1010.9
20260422005141 79 336 0.0 0.9 0.00 0.00 0.00 15 1010.9
20260422004637 79 3 0.9 0.9 0.00 0.00 0.00 15 1011.0
20260422004134 80 259 0.0 0.0 0.00 0.00 0.00 14 1011.1
20260422003632 80 261 0.0 0.9 0.00 0.00 0.00 14 1011.0
20260422003129 82 238 1.7 1.7 0.00 0.00 0.00 12 1011.0
20260422002625 82 236 0.0 0.9 0.00 0.00 0.00 11 1011.1
20260422002125 82 286 0.0 0.9 0.00 0.00 0.00 11 1011.1
20260422001620 82 181 0.9 0.9 0.00 0.00 0.00 11 1011.1
20260422001119 83 157 1.7 1.7 0.00 0.00 0.00 10 1011.1
20260422000616 84 167 2.6 2.6 0.00 0.00 0.00 10 1011.2
20260422000113 83 50 0.9 1.7 0.00 0.00 0.00 10 1011.2
20260421235609 83 40 1.7 2.6 0.00 0.00 0.00 10 1011.2
20260421235107 83 98 0.0 0.0 0.00 0.00 0.00 10 1011.0
20260421234602 84 133 2.6 4.3 0.00 0.00 0.00 10 1011.1
20260421234100 84 120 0.9 0.9 0.00 0.00 0.00 10 1011.1
20260421233555 84 173 0.9 2.6 0.00 0.00 0.00 10 1011.0
20260421233051 85 195 1.7 1.7 0.00 0.00 0.00 10 1011.2
20260421232549 85 163 4.3 6.1 0.00 0.00 0.00 10 1011.1
20260421232046 85 250 0.9 2.6 0.00 0.00 0.00 10 1011.0
20260421231543 85 156 2.6 2.6 0.00 0.00 0.00 10 1011.3
20260421231039 86 160 1.7 1.7 0.00 0.00 0.00 10 1011.3
20260421230537 84 43 0.9 1.7 0.00 0.00 0.00 10 1011.2
20260421230032 83 40 0.0 0.0 0.00 0.00 0.00 10 1011.2
20260421225530 86 18 1.7 1.7 0.00 0.00 0.00 10 1011.2
20260421225025 85 151 2.6 2.6 0.00 0.00 0.00 10 1011.6
20260421224521 85 133 2.6 2.6 0.00 0.00 0.00 10 1011.6
20260421224019 86 182 3.5 5.2 0.00 0.00 0.00 10 1011.5
20260421223514 86 114 1.7 1.7 0.00 0.00 0.00 10 1011.6
20260421223011 86 57 0.0 0.0 0.00 0.00 0.00 10 1011.8
20260421222508 85 159 1.7 1.7 0.00 0.00 0.00 10 1011.9
20260421222003 84 14 0.9 1.7 0.00 0.00 0.00 10 1011.9
20260421221500 86 80 3.5 4.3 0.00 0.00 0.00 10 1011.6
20260421220957 85 58 0.9 0.9 0.00 0.00 0.00 11 1011.9
20260421220453 86 148 3.5 5.2 0.00 0.00 0.00 10 1011.9
20260421215949 85 330 0.0 0.9 0.00 0.00 0.00 10 1012.0
20260421215445 86 233 0.9 1.7 0.00 0.00 0.00 10 1012.3
20260421214942 85 248 1.7 1.7 0.00 0.00 0.00 10 1012.0
20260421214438 86 355 2.6 2.6 0.00 0.00 0.00 10 1012.2
20260421213935 86 262 0.0 0.9 0.00 0.00 0.00 10 1012.3
20260421213432 85 291 0.9 0.9 0.00 0.00 0.00 10 1012.2
20260421212930 85 125 0.9 1.7 0.00 0.00 0.00 11 1012.7
20260421212426 86 104 4.3 5.2 0.00 0.00 0.00 11 1012.5
20260421211922 86 112 1.7 1.7 0.00 0.00 0.00 10 1012.4
20260421211419 86 196 0.9 1.7 0.00 0.00 0.00 10 1012.5
20260421210915 86 172 0.0 0.9 0.00 0.00 0.00 10 1012.6
20260421210412 85 323 0.9 1.7 0.00 0.00 0.00 10 1012.9
20260421205910 86 174 3.5 5.2 0.00 0.00 0.00 11 1012.7
20260421205409 85 45 0.9 1.7 0.00 0.00 0.00 11 1013.0
20260421204904 85 120 2.6 2.6 0.00 0.00 0.00 10 1012.9
20260421204401 86 238 1.7 2.6 0.00 0.00 0.00 12 1013.3
20260421203856 86 128 1.7 2.6 0.00 0.00 0.00 10 1013.3
20260421203353 85 215 2.6 4.3 0.00 0.00 0.00 10 1013.3
20260421202851 86 104 4.3 5.2 0.00 0.00 0.00 12 1013.4
20260421202348 85 0 1.7 2.6 0.00 0.00 0.00 11 1013.3
20260421201844 84 203 2.6 4.3 0.00 0.00 0.00 11 1013.6
20260421201343 83 118 1.7 2.6 0.00 0.00 0.00 13 1013.6
20260421200840 83 184 2.6 4.3 0.00 0.00 0.00 11 1013.6
20260421200337 84 306 2.6 2.6 0.00 0.00 0.00 10 1013.8
20260421195834 84 76 0.9 1.7 0.00 0.00 0.00 11 1013.7
20260421195329 84 32 2.6 4.3 0.00 0.00 0.00 11 1013.7
20260421194827 84 121 3.5 4.3 0.00 0.00 0.00 11 1013.8
20260421194323 83 209 1.7 2.6 0.00 0.00 0.00 12 1013.9
20260421193820 84 38 1.7 2.6 0.00 0.00 0.00 11 1013.9
20260421193317 83 107 0.9 1.7 0.00 0.00 0.00 11 1014.4
20260421192814 84 157 1.7 1.7 0.00 0.00 0.00 11 1014.1
20260421192312 85 188 0.9 0.9 0.00 0.00 0.00 12 1014.3
20260421191809 84 29 0.9 0.9 0.00 0.00 0.00 12 1014.3
20260421191305 84 247 0.9 0.9 0.00 0.00 0.00 11 1014.1
20260421190802 84 113 0.9 0.9 0.00 0.00 0.00 12 1014.3
20260421190300 83 50 0.9 1.7 0.00 0.00 0.00 13 1014.6
20260421185758 83 185 2.6 4.3 0.00 0.00 0.00 12 1014.6
20260421185256 82 258 0.9 1.7 0.00 0.00 0.00 12 1014.6
20260421184753 84 168 5.2 7.0 0.00 0.00 0.00 12 1014.7
20260421184250 83 136 2.6 4.3 0.00 0.00 0.00 12 1015.1
20260421183748 85 93 0.0 0.9 0.00 0.00 0.00 12 1014.8
20260421183245 84 151 2.6 2.6 0.00 0.00 0.00 12 1015.0
20260421182742 86 121 0.9 0.9 0.00 0.00 0.00 11 1015.1
20260421182238 84 156 0.9 1.7 0.00 0.00 0.00 12 1015.3
20260421181733 82 166 0.0 0.9 0.00 0.00 0.00 12 1015.3
20260421181230 83 87 0.9 1.7 0.00 0.00 0.00 13 1015.4
20260421180726 83 185 6.1 7.8 0.00 0.00 0.00 13 1015.5
20260421180224 82 180 4.3 5.2 0.00 0.00 0.00 12 1015.5
20260421175720 82 223 0.9 0.9 0.00 0.00 0.00 14 1015.7
20260421175215 82 181 3.5 6.1 0.00 0.00 0.00 15 1015.7
20260421174713 84 133 0.9 0.9 0.00 0.00 0.00 13 1015.7
20260421174210 82 133 0.0 0.9 0.00 0.00 0.00 14 1015.9
20260421173703 80 130 1.7 4.3 0.00 0.00 0.00 14 1016.0
20260421173158 80 107 1.7 1.7 0.00 0.00 0.00 15 1016.2
20260421172655 81 122 0.0 0.9 0.00 0.00 0.00 16 1016.1
20260421172152 80 352 0.9 0.9 0.00 0.00 0.00 14 1016.4
20260421171650 79 103 0.9 1.7 0.00 0.00 0.00 15 1016.4
20260421171147 79 143 2.6 2.6 0.00 0.00 0.00 16 1016.4
20260421170644 80 205 2.6 2.6 0.00 0.00 0.00 14 1016.7
20260421170139 78 117 2.6 2.6 0.00 0.00 0.00 16 1016.6
20260421165637 78 82 0.9 0.9 0.00 0.00 0.00 17 1016.8
20260421165134 78 7 1.7 1.7 0.00 0.00 0.00 16 1016.5
20260421164626 78 79 2.6 2.6 0.00 0.00 0.00 16 1016.5
20260421164121 76 68 0.9 0.9 0.00 0.00 0.00 17 1016.7
20260421163618 76 92 3.5 4.3 0.00 0.00 0.00 17 1016.7
20260421163115 77 32 1.7 1.7 0.00 0.00 0.00 16 1016.7
20260421162609 77 356 0.0 0.0 0.00 0.00 0.00 16 1016.6
20260421162106 78 129 0.0 0.0 0.00 0.00 0.00 15 1016.8
20260421161602 77 123 0.9 1.7 0.00 0.00 0.00 17 1016.8
20260421161058 76 130 1.7 2.6 0.00 0.00 0.00 16 1016.7
20260421160555 76 104 2.6 4.3 0.00 0.00 0.00 18 1016.7
20260421160050 74 102 0.9 1.7 0.00 0.00 0.00 21 1016.7
20260421155545 74 54 0.9 0.9 0.00 0.00 0.00 21 1016.7
20260421155040 73 105 0.9 1.7 0.00 0.00 0.00 23 1016.7
20260421154538 73 126 2.6 2.6 0.00 0.00 0.00 23 1016.7
20260421154037 73 126 0.0 0.0 0.00 0.00 0.00 24 1017.0
20260421153532 71 102 0.9 0.9 0.00 0.00 0.00 25 1016.9
20260421153030 69 100 0.9 0.9 0.00 0.00 0.00 27 1017.0
20260421152526 69 179 2.6 4.3 0.00 0.00 0.00 27 1017.2
20260421152024 69 113 0.9 1.7 0.00 0.00 0.00 27 1017.0
20260421151520 70 155 3.5 5.2 0.00 0.00 0.00 29 1017.0
20260421151020 71 172 3.5 4.3 0.00 0.00 0.00 30 1017.3
20260421150516 68 84 0.9 0.9 0.00 0.00 0.00 31 1016.9
20260421150012 69 164 0.9 1.7 0.00 0.00 0.00 30 1017.2
20260421145508 67 109 0.0 0.9 0.00 0.00 0.00 32 1017.4
20260421145005 66 140 0.9 0.9 0.00 0.00 0.00 34 1017.3
20260421144504 65 175 0.9 0.9 0.00 0.00 0.00 34 1017.3
20260421144000 64 142 0.0 0.0 0.00 0.00 0.00 37 1017.0
20260421143457 63 83 1.7 1.7 0.00 0.00 0.00 41 1017.0
20260421142953 63 148 2.6 2.6 0.00 0.00 0.00 44 1017.0
20260421142451 62 160 0.0 0.9 0.00 0.00 0.00 42 1017.2
20260421141947 61 168 0.0 0.0 0.00 0.00 0.00 43 1017.2
20260421141444 59 156 0.0 0.0 0.00 0.00 0.00 40 1017.2
20260421140939 59 158 0.9 0.9 0.00 0.00 0.00 47 1017.0
20260421140435 59 152 0.9 0.9 0.00 0.00 0.00 48 1017.0
20260421135931 59 157 0.9 0.9 0.00 0.00 0.00 42 1017.2
20260421135429 58 302 0.0 0.0 0.00 0.00 0.00 36 1017.2
20260421134928 58 214 0.0 0.0 0.00 0.00 0.00 34 1017.3
20260421134425 57 15 0.0 0.9 0.00 0.00 0.00 33 1017.3
20260421133920 55 29 0.0 0.0 0.00 0.00 0.00 38 1017.4
20260421133417 54 130 0.0 0.0 0.00 0.00 0.00 41 1017.2
20260421132914 54 58 0.0 0.0 0.00 0.00 0.00 38 1017.2
20260421132410 52 22 0.0 0.9 0.00 0.00 0.00 40 1017.3
20260421131905 51 35 0.0 0.0 0.00 0.00 0.00 42 1017.3
20260421131401 49 8 0.0 0.0 0.00 0.00 0.00 44 1017.2
20260421130856 48 225 0.0 0.0 0.00 0.00 0.00 46 1017.0
20260421130353 47 98 0.0 0.0 0.00 0.00 0.00 48 1017.3
20260421125849 48 230 0.0 0.0 0.00 0.00 0.00 48 1017.3
20260421125347 48 137 0.0 0.0 0.00 0.00 0.00 43 1017.3
20260421124843 48 53 0.0 0.0 0.00 0.00 0.00 41 1017.2
20260421124339 47 46 0.0 0.0 0.00 0.00 0.00 44 1016.9
20260421123835 46 54 0.0 0.0 0.00 0.00 0.00 46 1017.0
20260421123336 44 333 0.0 0.0 0.00 0.00 0.00 51 1017.0
20260421122832 44 6 0.0 0.0 0.00 0.00 0.00 51 1016.9
20260421122329 43 109 0.0 0.0 0.00 0.00 0.00 54 1016.7
20260421121827 42 60 0.0 0.0 0.00 0.00 0.00 55 1016.8
20260421121322 42 88 0.0 0.0 0.00 0.00 0.00 59 1016.9
20260421120818 41 113 0.0 0.0 0.00 0.00 0.00 59 1016.7
20260421120314 41 86 0.0 0.0 0.00 0.00 0.00 60 1016.9
20260421115811 41 151 0.0 0.0 0.00 0.00 0.00 58 1016.6
20260421115307 41 223 0.0 0.0 0.00 0.00 0.00 58 1016.7
20260421114804 41 237 0.0 0.0 0.00 0.00 0.00 58 1016.6
20260421114300 41 351 0.0 0.9 0.00 0.00 0.00 60 1016.9
20260421113756 42 325 0.0 0.0 0.00 0.00 0.00 59 1016.6
20260421113253 42 339 0.0 0.0 0.00 0.00 0.00 58 1016.7
20260421112749 41 45 0.0 0.0 0.00 0.00 0.00 60 1016.7
20260421112245 42 109 0.0 0.0 0.00 0.00 0.00 59 1016.8
20260421111742 42 163 0.0 0.9 0.00 0.00 0.00 57 1016.7
20260421111238 42 157 0.0 0.0 0.00 0.00 0.00 57 1016.7
20260421110736 42 200 0.0 0.0 0.00 0.00 0.00 56 1016.5
20260421110233 43 153 0.0 0.0 0.00 0.00 0.00 53 1016.5
20260421105730 44 179 0.0 0.0 0.00 0.00 0.00 51 1016.5
20260421105227 44 67 0.0 0.0 0.00 0.00 0.00 47 1016.4
20260421104724 44 94 0.0 0.0 0.00 0.00 0.00 50 1016.6
20260421104221 44 111 0.0 0.0 0.00 0.00 0.00 51 1016.5
20260421103719 43 76 0.0 0.0 0.00 0.00 0.00 51 1016.4
20260421103217 44 257 0.0 0.0 0.00 0.00 0.00 50 1016.1
20260421102712 44 330 0.0 0.0 0.00 0.00 0.00 50 1016.1
20260421102209 44 338 0.0 0.0 0.00 0.00 0.00 50 1016.4
20260421101705 44 51 0.0 0.0 0.00 0.00 0.00 49 1016.1
20260421101200 43 91 0.0 0.0 0.00 0.00 0.00 53 1016.1
20260421100657 43 52 0.0 0.0 0.00 0.00 0.00 54 1016.1
20260421100153 44 36 0.0 0.0 0.00 0.00 0.00 54 1016.1
20260421095649 44 254 0.0 0.0 0.00 0.00 0.00 52 1016.1
20260421095146 47 149 0.0 0.0 0.00 0.00 0.00 43 1016.2
20260421094642 47 185 0.0 0.0 0.00 0.00 0.00 42 1016.0
20260421094139 47 107 0.0 0.0 0.00 0.00 0.00 41 1016.0
20260421093636 48 121 0.0 0.0 0.00 0.00 0.00 39 1015.9
20260421093133 47 91 0.0 0.0 0.00 0.00 0.00 40 1015.8
20260421092630 48 88 0.0 0.0 0.00 0.00 0.00 40 1015.9
20260421092126 48 111 0.0 0.0 0.00 0.00 0.00 40 1015.7
20260421091623 48 98 0.0 0.0 0.00 0.00 0.00 40 1015.9
20260421091120 48 86 0.0 0.0 0.00 0.00 0.00 40 1015.8
20260421090618 48 105 0.9 0.9 0.00 0.00 0.00 40 1015.7
20260421090114 49 101 0.9 0.9 0.00 0.00 0.00 41 1015.8
20260421085612 49 92 0.0 0.0 0.00 0.00 0.00 40 1015.8
20260421085108 49 117 0.9 0.9 0.00 0.00 0.00 41 1015.7
20260421084605 49 89 0.0 0.0 0.00 0.00 0.00 40 1015.8
20260421084104 49 98 0.9 0.9 0.00 0.00 0.00 40 1015.8
20260421083601 50 96 1.7 2.6 0.00 0.00 0.00 43 1015.7
20260421083057 51 90 1.7 1.7 0.00 0.00 0.00 42 1015.8
20260421082553 51 117 0.9 0.9 0.00 0.00 0.00 36 1015.7
20260421082050 51 93 0.0 0.0 0.00 0.00 0.00 38 1015.7
20260421081547 53 103 0.9 1.7 0.00 0.00 0.00 32 1015.5
20260421081044 54 131 0.0 0.0 0.00 0.00 0.00 29 1015.9
20260421080542 55 225 0.0 0.0 0.00 0.00 0.00 28 1015.7
20260421080038 54 189 0.0 0.0 0.00 0.00 0.00 28 1015.8
20260421075535 55 149 0.0 0.0 0.00 0.00 0.00 27 1015.5
20260421075031 55 32 0.0 0.0 0.00 0.00 0.00 27 1015.7
20260421074527 55 82 0.0 0.0 0.00 0.00 0.00 27 1015.8
20260421074025 55 105 0.9 0.9 0.00 0.00 0.00 27 1015.9
20260421073521 55 102 0.0 0.0 0.00 0.00 0.00 27 1016.1
20260421073016 54 87 0.0 0.0 0.00 0.00 0.00 27 1015.9
20260421072516 54 84 0.0 0.0 0.00 0.00 0.00 28 1015.9
20260421072012 53 82 0.0 0.0 0.00 0.00 0.00 29 1015.7
20260421071509 52 119 0.9 0.9 0.00 0.00 0.00 29 1016.0
20260421071004 52 118 0.0 0.0 0.00 0.00 0.00 31 1016.1
20260421070501 53 76 0.0 0.0 0.00 0.00 0.00 32 1016.0
20260421065957 54 91 0.9 0.9 0.00 0.00 0.00 31 1016.4
20260421065454 55 103 0.0 0.9 0.00 0.00 0.00 27 1016.1
20260421064948 55 136 0.0 0.0 0.00 0.00 0.00 27 1016.0
20260421064440 54 44 0.0 0.0 0.00 0.00 0.00 27 1016.1
20260421063935 52 84 0.0 0.0 0.00 0.00 0.00 31 1016.2
20260421063432 52 76 0.0 0.0 0.00 0.00 0.00 31 1015.8
20260421062928 52 28 0.9 0.9 0.00 0.00 0.00 33 1016.2
20260421062425 53 140 0.0 0.0 0.00 0.00 0.00 31 1016.2
20260421061920 52 55 0.0 0.0 0.00 0.00 0.00 31 1015.9
20260421061418 52 122 0.0 0.0 0.00 0.00 0.00 32 1015.8
20260421060915 53 78 0.0 0.0 0.00 0.00 0.00 30 1016.0
20260421060412 52 113 0.0 0.0 0.00 0.00 0.00 31 1016.0
20260421055909 53 156 0.0 0.0 0.00 0.00 0.00 29 1016.0
20260421055405 53 75 0.0 0.0 0.00 0.00 0.00 29 1015.9
20260421054901 52 24 0.0 0.0 0.00 0.00 0.00 30 1016.1
20260421054359 51 112 0.0 0.0 0.00 0.00 0.00 35 1015.5
20260421053854 52 100 0.0 0.0 0.00 0.00 0.00 35 1015.9
20260421053352 53 106 0.0 0.0 0.00 0.00 0.00 35 1016.0